Regional Weather Roundup
Issued by NWS Burlington, VT

Current Version | Previous Version | Text Only | Print | Product List | Glossary Off
Versions: 1 2 3 4 5 6 7 8 9 10 11 12 13 14 15 16 17 18 19 20 21 22 23 24 25 26 27 28 29 30 31 32 33 34 35 36 37 38 39 40 41 42 43 44 45 46 47 48 49 50

000
ASUS41 KBTV 301630
RWRBTV
VERMONT REGIONAL WEATHER ROUNDUP
NATIONAL WEATHER SERVICE BURLINGTON VT
1200 PM EDT THU OCT 30 2014

NOTE: "FAIR" INDICATES FEW OR NO CLOUDS BELOW 12,000 FEET WITH NO
SIGNIFICANT WEATHER AND/OR OBSTRUCTIONS TO VISIBILITY.

* THESE REPORTS ARE NOT UNDER NWS QUALITY CONTROL AND/OR DO NOT
  REPORT WEATHER SUCH AS PRECIPITATION AND FOG.

VTZ001>019-301700-
_____VERMONT_____


CITY           SKY/WX    TMP DP  RH WIND       PRES   REMARKS
BURLINGTON     PTSUNNY   48  35  60 NW9       29.97S
MONTPELIER     PTSUNNY   46  37  71 W9        29.97S
MORRISVILLE    CLOUDY    45  35  68 NW8       29.96S
ST. JOHNSBURY*   N/A     48  33  56 MISG      29.92S
LYNDONVILLE*   CLOUDY    45  33  63 W7        29.93F
MIDDLEBURY*    CLOUDY    51  40  66 N6        29.95F
RUTLAND*       CLOUDY    46  37  71 N6        29.94F
SPRINGFIELD    PTSUNNY   52  35  52 NW9       29.94S
HIGHGATE*      CLOUDY    44  33  65 W3        29.97F
NEWPORT*       CLOUDY    41  36  80 NW6       29.95S
BENNINGTON     PTSUNNY   49  38  65 W8        29.96S
MT. MANSFIELD*   N/A     32 N/A N/A NW16        N/A

_____LAKE CHAMPLAIN_____


CITY           SKY/WX    TMP DP  RH WIND       PRES   REMARKS
BURTON ISLAND*   N/A     46  36  66 NW7         N/A
COLCHESTER RF*   N/A     46  34  61 NW13        N/A
DIAMOND ISL*     N/A     48  36  61 NW6         N/A

$$

NYZ007-026>031-035-052-083-301700-
_____NORTHERN NEW YORK_____


CITY           SKY/WX    TMP DP  RH WIND       PRES   REMARKS
PLATTSBURGH    SUNNY     50  33  52 W6        29.97F
SARANAC LAKE   CLOUDY    40  34  79 VRB6      29.95S
MASSENA        PTSUNNY   44  34  67 W7        30.02S
OGDENSBURG*    CLOUDY    46  34  61 NW6       30.02S
POTSDAM*       CLOUDY    45  36  70 NW5       30.01S
WATERTOWN      CLOUDY    46  32  58 CALM      30.04S
FT DRUM        CLOUDY    42  33  69 N5        30.02S
ALBANY         PTSUNNY   53  37  54 NW14      29.99S
GLENS FALLS    CLOUDY    53  35  50 NW8       29.96S

$$
NHZ002-005-011-301700-
_____NEW HAMPSHIRE_____


CITY           SKY/WX    TMP DP  RH WIND       PRES   REMARKS
LEBANON        CLOUDY    48  40  73 W3        29.94S
KEENE          CLOUDY    52  37  58 SW8       29.95S
MT WASHINGTON  FOG       23  23 100 NW39        N/A  VSB 0   WCI   3
PLYMOUTH       FAIR      52  43  73 W7        29.92F
WHITEFIELD     CLOUDY    45  38  76 NW5       29.92R

$$

_____REGIONAL QUEBEC LOCATIONS_____


CITY           SKY/WX    TMP DP  RH WIND       PRES   REMARKS
MONTREAL       PTSUNNY   46  34  61 W7        29.98S
QUEBEC CITY    PTSUNNY   45  36  70 SW14      29.90S
SHERBROOKE     CLOUDY    43  36  75 W9        29.93S

_____REGIONAL ONTARIO LOCATIONS_____


CITY           SKY/WX    TMP DP  RH WIND       PRES   REMARKS
OTTAWA         PTSUNNY   45  32  61 W10       30.02S

______KEY______
VSB  - VISIBILITY IN MILES
WCI  - WIND CHILL INDEX
HX   - HEAT INDEX
$$
NNNN



USA.gov is the U.S. government's official web portal to all federal, state and local government web resources and services.